Tracking 27382 objects as of 4-Jun-2023
HD Live streaming from Space Station
objects crossing your sky now

THOR ABLESTAR DEB

Track THOR ABLESTAR DEB now!
10-day predictions


NORAD ID: 13514
Int'l Code: 1961-015KX
Perigee: 897.2 km
Apogee: 1,261.1 km
Inclination: 66.7 °
Period: 106.7 minutes
Semi major axis: 7450 km
RCS: 0.0184 m2 (small)
Launch date: June 29, 1961
Source: United States (US)
Launch site: AIR FORCE EASTERN TEST RANGE (AFETR)

Note: This is SATELLITE DEBRIS
Your satellite tracking list
Your tracking list is empty




NASA's NSSDC Master Catalog

Two Line Element Set (TLE):
1 13514U 61015KX  23155.15718161  .00000345  00000-0  53995-3 0  9999
2 13514  66.7171  46.3736 0244217  13.6209 137.2902 13.50078329114787
Source of the keplerian elements: AFSPC